www.pogodaiklimat.ru

Погода и климат >> Архив погоды >> Россия >> Мордовия >> Темников


ПОГОДА в Темникове

  • Прогноз погоды в Темникове
  • Монитор погоды в Темникове
  • Климат города

АРХИВ ПОГОДЫ в Темникове

Время (UTC), дата Ветер
(напр.,м/с)
 
Видим.   Явления Облачность Т
(С)
Тd
(С)
f
(%)
Тe
(С)
Тes
(С)
Комфортность P
(гПа)
Po
(гПа)
Тmin
(С)
Tmax
(С)
R
(мм)
R24
(мм)
S
(см)
03 11.08 З 1-2
{3}
20 км 3/0
[Ci fib]
+15.1 +11.2 78 +16 +16 1024.9 1008.2 +12.3
06 11.08 СЗ 2-4
{4}
20 км 1/0
[Ci fib]
+22.5 +13.9 58 +26 +33 жарко 1024.2 1008.0
09 11.08 З 3-6
{7}
20 км 3/3 1000 м
[Cu hum]
+27.5 +12.4 39 +29 +36 жарко 1022.6 1006.8
12 11.08 З 4-8
{9}
20 км ясно +28.8 +9.3 30 +29 +34 жарко 1021.0 1005.2
15 11.08 З 3-5
{8}
20 км ясно +27.8 +8.4 29 +28 +28 жарко 1019.4 1003.6 +29.0
18 11.08 З 2-2
{7}
10 км ясно +20.0 +11.3 57 +22 +22 комфорт 1020.0 1003.7
21 11.08 З 2-2
{3}
10 км ясно +14.4 +10.4 77 +14 +14 1019.9 1003.3
00 12.08 З 1-1
{2}
10 км ясно +11.5 +9.5 88 +11 +11 1019.6 1002.8
03 12.08 З 1-1
{2}
20 км 3/3 600 м
[Sc]
+12.7 +11.2 91 +13 +13 1019.1 1002.5 +10.2
06 12.08 З 1-2
{3}
20 км 3/0
[Ci fib]
+23.3 +11.0 46 +26 +34 жарко 1017.8 1001.7
09 12.08 З 3-5
{8}
20 км 1/0
[Ci fib]
+27.8 +7.0 27 +27 +38 жарко 1016.4 1000.6
12 12.08 З 4-8
{9}
20 км 1/0
[Ci fib]
+29.1 +7.0 25 +28 +34 жарко 1014.8 999.0
15 12.08 З 2-4
{8}
20 км 1/0
[Ci fib]
+28.5 +9.0 29 +28 +29 жарко 1012.9 997.2 +29.5
18 12.08 ЮЗ 1-2
{5}
10 км ясно +18.0 +12.0 68 +19 +19 1012.5 996.3
21 12.08 З 2-3
{3}
10 км ясно +19.1 +11.7 62 +21 +21 комфорт 1011.9 995.7
00 13.08 ЮЗ 2-3
{4}
10 км ясно +17.5 +11.2 67 +18 +18 1011.4 995.2
03 13.08 З 1-3
{4}
20 км 6/3 600 м
[Sc Ac trans Cc]
+17.2 +11.3 68 +18 +19 1012.0 995.7 +15.5
06 13.08 СЗ 2-4
{4}
20 км 8/4 600 м
[Sc Ac trans Ci fib]
+21.7 +11.8 53 +24 +27 комфорт 1011.9 995.9
09 13.08 З 5-9
{11}
20 км 6/4 1000 м
[Cu hum Ac trans Ci fib]
+25.7 +6.8 30 +26 +29 жарко 1011.1 995.2
12 13.08 З 4-8
{11}
20 км 8/3 1000 м
[Cu hum Ac trans Cs]
+26.2 +5.9 27 +26 +28 жарко 1010.3 994.5
15 13.08 З 4-7
{9}
20 км 8/4 600 м
[Sc Cs]
+23.7 +4.6 29 +23 +24 комфорт 1010.2 994.2 +26.4
18 13.08 З 2-4
{8}
10 км 8/6 600 м
[Sc Ac trans]
+19.4 +6.4 43 +21 +21 комфорт 1011.0 994.8
21 13.08 З 2-4
{4}
10 км 10/8 600 м
[Sc Ac trans]
+17.4 +7.3 51 +18 +18 1011.9 995.6
00 14.08 З 1-2
{4}
10 км 8/5 600 м
[Sc Ac trans]
+15.0 +8.2 64 +16 +16 1012.3 995.9
03 14.08 З 2-3
{3}
4000 м слабый дождь 10/10 300 м
[Frnb Ns]
+14.6 +9.8 73 +14 +14 1013.2 996.8 +14.6 0.0
06 14.08 З 2-4
{5}
20 км {дождь} 6/3 600 м
[Sc Ac As]
+18.1 +10.9 63 +19 +22 1014.0 997.7
09 14.08 З 3-6
{8}
20 км 6/6 600 м
[Cu med, cong]
+21.6 +13.9 62 +24 +29 комфорт 1014.4 998.3
12 14.08 З 3-7
{7}
20 км 6/6 600 м
[Cu med, cong]
+23.8 +8.0 36 +24 +27 комфорт 1014.3 998.3
15 14.08 СЗ 3-5
{7}
20 км 4/4 600 м
[Cu hum]
+23.0 +6.7 35 +24 +24 комфорт 1014.6 998.5 +24.5
18 14.08 З 2-2
{5}
10 км 6/4 600 м
[Cu hum Cc]
+14.6 +9.2 70 +14 +14 1016.5 1000.0
21 14.08 З 1-1
{2}
10 км 3/0
[Ci fib]
+10.3 +8.2 87 +10 +10 1017.5 1000.7
00 15.08 В 1-1
{1}
4000 м дымка ясно +8.5 +7.4 93 +8 +8 1018.2 1001.3
03 15.08 В 1-1
{1}
4000 м дымка 8/3 600 м
[Sc Cs]
+8.9 +8.1 95 +8 +8 1018.6 1001.7 +7.2
06 15.08 В 1-2
{2}
20 км 4/3 600 м
[Cu hum Ci fib]
+20.5 +11.7 57 +24 +29 комфорт 1017.6 1001.4
09 15.08 ЮЗ 4-9
{9}
20 км 3/3 1000 м
[Cu hum Ci fib]
+26.3 +9.4 34 +27 +33 жарко 1016.4 1000.5
12 15.08 Ю 4-7
{10}
20 км 5/4 600 м
[Cu hum As trans]
+28.1 +9.3 31 +28 +31 жарко 1014.6 998.8
15 15.08 ЮЗ 3-5
{10}
20 км 6/3 600 м
[Cu hum Ac As]
+25.6 +11.5 41 +27 +27 жарко 1014.1 998.2 +29.4
18 15.08 Ю 3-5
{6}
10 км {дождь} 8/5 600 м
[Sc Ci fib]
+22.6 +11.8 50 +25 +25 комфорт 1013.7 997.6
21 15.08 ЮЗ 4-7
{9}
10 км ясно +22.5 +11.0 48 +25 +25 комфорт 1012.4 996.4
00 16.08 ЮЗ 3-5
{8}
10 км 3/0
[Ac trans]
+20.6 +10.7 53 +23 +23 комфорт 1012.3 996.2
03 16.08 ЮЗ 3-6
{6}
20 км 5/3 600 м
[Sc Ac trans]
+19.3 +11.3 60 +21 +21 комфорт 1012.7 996.5 +18.6 0.0
06 16.08 З 2-4
{6}
20 км 3/0
[Ac As]
+23.8 +14.6 56 +26 +32 жарко 1013.4 997.5
09 16.08 СЗ 4-8
{10}
20 км 8/3 600 м
[Cu hum Ac As Cs]
+26.4 +13.5 45 +28 +32 жарко 1014.1 998.2
12 16.08 З 4-7
{8}
20 км 10/1 600 м
[Cu hum Ac As]
+24.8 +13.2 48 +27 +28 жарко 1014.9 998.9
15 16.08 З 2-6
{8}
20 км {дождь} 8/8 600 м
[]
+22.1 +14.1 60 +25 +25 комфорт 1015.7 999.6 +26.9 0.0
18 16.08 СЗ 1-3
{6}
10 км {дождь} 6/4 600 м
[Cu hum Ac trans Ci fib]
+17.4 +15.7 90 +18 +18 1017.0 1000.7
21 16.08 СЗ 2-3
{4}
10 км 3/0
[Ci fib]
+16.1 +14.5 90 +16 +16 1018.3 1001.9
00 17.08 С 2-4
{4}
10 км 6/3
[Sc Ac trans]
+15.2 +13.6 90 +15 +15 1019.7 1003.1
03 17.08 С 2-3
{4}
4000 м дымка 5/3 600 м
[Sc Ac trans Ci fib]
+12.9 +11.5 91 +12 +12 1021.1 1004.4 +12.9
06 17.08 СВ 4-8
{8}
20 км 8/4 600 м
[Cu hum Ci fib]
+18.0 +10.7 62 +18 +20 1022.2 1005.8
09 17.08 СВ 4-7
{8}
20 км 8/6 600 м
[Cu hum Ci fib]
+22.1 +9.3 44 +24 +27 комфорт 1022.0 1005.8
12 17.08 СВ 4-7
{8}
20 км 8/8 600 м
[Cu hum]
+23.4 +7.1 35 +24 +25 комфорт 1021.5 1005.3
15 17.08 СВ 2-6
{8}
20 км 8/5 600 м
[Cu hum Ac trans]
+22.3 +7.3 38 +23 +24 комфорт 1021.5 1005.3 +23.8
18 17.08 С 2-2
{6}
10 км 3/0
[Ac trans Ci fib]
+16.4 +7.7 56 +17 +17 1022.2 1005.7
21 17.08 СЗ 1-1
{3}
10 км ясно +9.9 +7.0 82 +9 +9 1023.3 1006.5

 

Местоположение метеостанции Темников (Мордовия, Россия): широта 54.63 долгота 43.23 высота над уровнем моря 139 м.

В архиве по умолчанию представлена погода в Темникове за последнюю неделю. Архивные данные за месяц целиком и за предыдущие месяцы, начиная с января 2011 года, Вы можете получить, выбрав интересующий диапазон дат из раскрывающегося списка и нажав кнопку "Ввод!".


*Определитесь, кто Вы:
робот инопланетянин человек

Внимание! Время в таблицах - всемирное. Для получения местного времени необходимо прибавить поправку, которая в Темникове равна 3 ч.

Смотрите также архив погоды в соседних городах и на ближайших метеорологических станциях:

Погода в Краснослободске (Мордовия, Россия) (41 км)
Погода в Торбеево (Мордовия, Россия) (61 км)
Погода в Сасово (Рязанская область, Россия) (87 км)
Погода в Арзамасе (Нижегородская область, Россия) (89 км)
Погода в Лукоянове (Нижегородская область, Россия) (93 км)
Погода в Елатьме (Рязанская область, Россия) (100 км)
Погода в Выксе (Нижегородская область, Россия) (105 км)
Погода в Инсаре (Мордовия, Россия) (113 км)
Погода в Муроме (Владимирская область, Россия) (132 км)
Погода в Земетчино (Пензенская область, Россия) (134 км)

Пояснения к столбцам:

Ветер - указаны скорость ветра в м/с - средняя за 10 мин, порывы в срок и между сроками (в фигурных скобках) и направление, откуда дует ветер: С - северный, СВ - северо-восточный, В - восточный, ЮВ - юго-восточный, Ю - южный, ЮЗ - юго-западный, З - западный, СЗ - северо-западный.
Видимость - горизонтальная дальность видимости в метрах или километрах. При видимости от 1 до 10 км при отсутствии осадков обычно наблюдается дымка, при ухудшении видимости до 1 км и менее - туман. В сухую погоду видимость может ухудшаться дымом, пылью или мглою.
Явления - указаны атмосферные явления, наблюдавшиеся в срок или в последний час перед сроком; фигурными скобками обозначены явления, наблюдавшиеся между сроками (за 1-3 часа до срока); квадратными скобками обозначены град или гололедные отложения с указанием их диаметра в мм.
Облачность - указаны через наклонную черту общая и нижняя облачность в баллах и высота нижней границы облаков в метрах; квадратными скобками обозначены формы облаков: Ci - перистые, Cs - перисто-слоистые, Cc - перисто-кучевые, Ac - высококучевые, As - высокослоистые, Sc - слоисто-кучевые, Ns - слоисто-дождевые, Cu - кучевые, Cb - кучево-дождевые. Подробнее классификацию облаков см. в Атласе облаков (PDF).
T - Температура воздуха - температура, измеренная на высоте 2 м над землей.
Td - Температура точки росы - температура, при понижении до которой содержащийся в воздухе водяной пар достигнет насыщения.
f - Относительная влажность воздуха - влажноcть воздуха, измеренная на высоте 2 м над землей.
Te - Эффективная температура - температура, которую ощущает одетый по сезону человек в тени. Характеристика душности погоды. При расчете учитывается влияние влажности воздуха и скорости ветра на теплоощущения человека.
Tes - Эффективная температура на солнце - температура, которую ощущает человек, с поправкой на солнечный нагрев. Характеристика знойности погоды. Зависит от высоты солнца над горизонтом, облачности и скорости ветра. Ночью, в пасмурную погоду, а также при ветре 12 м/с и более поправка равна нулю.
P - Атмосферное давление - приведенное к уровню моря атмосферное давление.
Po - Атмосферное давление - измеренное на уровне метеостанции атмосферное давление.
Tmin - Минимальная температура - минимум температуры воздуха на высоте 2 м над землей.
Tmax - Максимальная температура - максимум температуры воздуха на высоте 2 м над землей.
R - Количество осадков - Количество выпавших осадков за период времени, мм. При наведении курсора мыши на число - период времени, за который выпало указанное количество осадков.
R24 - Количество осадков - Количество выпавших осадков за 24 часа, мм.
S - Снежный покров - Высота снежного покрова, см. При наведении курсора мыши на число - состояние снежного покрова и степень покрытия местности в баллах.